This demonstration page uses our WeatherBlox Daily Observations layout. Learn more.

Left ArrowRight Arrow

39.51506, -84.39828

Hourly Observations for August 25, 2020

Temp ( °F °C ) Dew Point ( °F °C ) Humidity (%) Winds ( mph kmh ) Pressure ( in mb ) Visibility ( mi km ) Precip ( " mm )
12:15 am 00:15 Clear 74 23.3 72 22 92 92 Calm 30.05 1018 10 16.0934 0 0
12:35 am 00:35 Clear 74 23.4 71 21.8 91 91 SSW 3 6 30.05 1017 10 16.0934 0 0
12:55 am 00:55 Clear 74 23.2 72 22 93 93 SW 5 7 30.05 1018 10 16.0934 0 0
1:15 am 01:15 Mostly Cloudy 74 23.1 72 22.1 94 94 Calm 30.05 1018 10 16.0934 0 0
1:35 am 01:35 Clear 73 23 72 22.1 95 95 SW 5 7 30.05 1018 10 16.0934 0 0
1:55 am 01:55 Clear 72 22.4 71 21.9 97 97 SW 3 6 30.05 1018 10 16.0934 0 0
2:15 am 02:15 Clear 71 21.6 71 21.6 100 100 SSW 3 6 30.04 1017 7 11.26538 0 0
2:35 am 02:35 Clear 72 22.1 71 21.6 97 97 SSW 3 6 30.04 1017 10 16.0934 0 0
2:55 am 02:55 Clear 72 22.3 71 21.7 96 96 SSW 5 7 30.04 1017 10 16.0934 0 0
3:15 am 03:15 Clear 71 21.9 71 21.5 98 98 SSW 5 7 30.04 1017 10 16.0934 0 0
3:35 am 03:35 Clear 72 22.4 71 21.9 97 97 SW 5 7 30.04 1017 10 16.0934 0 0
3:55 am 03:55 Mostly Cloudy 72 22.2 71 21.8 98 98 SW 6 9 30.04 1017 7 11.26538 0 0
4:15 am 04:15 Mostly Cloudy 72 22.4 71 21.9 97 97 SW 5 7 30.04 1017 7 11.26538 0 0
4:35 am 04:35 Mostly Cloudy 73 22.6 71 21.9 96 96 SSW 5 7 30.03 1017 10 16.0934 0 0
4:55 am 04:55 Partly Cloudy 73 22.5 71 21.8 96 96 SSW 5 7 30.04 1017 10 16.0934 0 0
5:15 am 05:15 Clear 72 22.2 71 21.6 96 96 SSW 5 7 30.04 1017 10 16.0934 0 0
5:35 am 05:35 Clear 73 22.6 71 21.9 96 96 SSW 6 9 30.04 1017 10 16.0934 0 0
5:55 am 05:55 Clear 73 22.6 71 21.8 95 95 SW 6 9 30.03 1017 10 16.0934 0 0
6:15 am 06:15 Clear 71 21.9 71 21.5 98 98 SSW 5 7 30.03 1017 7 11.26538 0 0
6:35 am 06:35 Clear 71 21.9 71 21.5 98 98 SSW 3 6 30.04 1017 7 11.26538 0 0
6:55 am 06:55 Clear with Mist and Fog 71 21.8 71 21.5 98 98 SW 3 6 30.05 1018 7 11.26538 0 0
7:15 am 07:15 Sunny with Mist and Fog 71 21.7 71 21.5 99 99 Calm 30.06 1018 5 8.0467 0 0
7:35 am 07:35 Sunny with Mist and Fog 71 21.9 71 21.6 98 98 Calm 30.06 1018 5 8.0467 0 0
7:55 am 07:55 Sunny with Mist and Fog 73 22.6 72 22.1 97 97 Calm 30.07 1018 7 11.26538 0 0
8:15 am 08:15 Sunny 74 23.4 72 22.4 94 94 SSW 5 7 30.07 1018 7 11.26538 0 0
8:35 am 08:35 Sunny 75 24 73 22.5 91 91 S 6 9 30.07 1018 7 11.26538 0 0
8:55 am 08:55 Sunny 76 24.7 73 22.8 89 89 SSW 6 9 30.05 1018 10 16.0934 0 0
9:15 am 09:15 Sunny 79 26 73 22.9 83 83 W 7 11 30.06 1018 10 16.0934 0 0
9:35 am 09:35 Sunny 81 27 74 23.1 79 79 W 7 11 30.07 1018 10 16.0934 0 0
9:55 am 09:55 Sunny 82 27.7 73 22.7 74 74 W 8 13 30.06 1018 10 16.0934 0 0
10:15 am 10:15 Sunny 83 28.6 73 22.9 71 71 W 10 17 30.05 1018 10 16.0934 0 0
10:35 am 10:35 Partly Cloudy 85 29.2 73 23 69 69 W 7 11 30.05 1018 10 16.0934 0 0
10:55 am 10:55 Sunny 86 29.9 74 23.1 67 67 WSW 9 15 30.05 1018 10 16.0934 0 0
11:15 am 11:15 Sunny 87 30.3 73 22.9 65 65 W 13 20 30.04 1017 10 16.0934 0 0
11:35 am 11:35 Sunny 88 31 74 23.1 63 63 WNW 12 19 30.04 1017 10 16.0934 0 0
11:55 am 11:55 Sunny 89 31.4 75 23.7 64 64 W 7 11 30.03 1017 10 16.0934 0 0
12:15 pm 12:15 Partly Cloudy 89 31.9 75 23.7 62 62 W 12 19 30.03 1017 10 16.0934 0 0
12:35 pm 12:35 Partly Cloudy 89 31.6 73 22.6 59 59 WNW 12 19 30.03 1017 10 16.0934 0 0
12:55 pm 12:55 Partly Cloudy 91 32.7 74 23.2 57 57 W 8 13 30.02 1016 10 16.0934 0 0
1:15 pm 13:15 Sunny 91 32.9 73 22.6 55 55 W 10 17 30.02 1016 10 16.0934 0 0
1:35 pm 13:35 Partly Cloudy 91 32.9 72 22.3 54 54 WNW 12 19 30.02 1016 10 16.0934 0 0
1:55 pm 13:55 Partly Cloudy 91 33 72 22 52 52 W 15 24 30.01 1016 10 16.0934 0 0
2:15 pm 14:15 Sunny 91 33 72 22.3 53 53 WNW 8 13 30.01 1016 10 16.0934 0 0
2:35 pm 14:35 Sunny 92 33.2 73 22.5 53 53 W 13 20 30 1016 10 16.0934 0 0
2:55 pm 14:55 Sunny 92 33.3 72 22.4 53 53 W 14 22 29.99 1016 10 16.0934 0 0
3:15 pm 15:15 Sunny 92 33.4 72 22.1 52 52 WNW 12 19 29.98 1015 10 16.0934 0 0
3:35 pm 15:35 Partly Cloudy 92 33.6 73 22.5 52 52 WNW 9 15 29.98 1015 10 16.0934 0 0
3:55 pm 15:55 Mostly Cloudy 92 33.3 73 22.6 53 53 NNW 7 11 29.98 1015 10 16.0934 0 0
4:15 pm 16:15 Cloudy with Rain 82 27.9 74 23.5 77 77 E 3 6 30 1016 2.5 4.02335 0 0
4:35 pm 16:35 Partly Cloudy with Nearby Thunderstorms 82 27.6 79 26.2 92 92 NNW 5 7 29.99 1015 7 11.26538 0 0
4:55 pm 16:55 Partly Cloudy with Thunderstorms 79 26.3 70 21 73 73 W 10 17 30.02 1017 7 11.26538 0 0
5:15 pm 17:15 Sunny 77 25.1 70 21 78 78 WNW 5 7 30 1016 10 16.0934 0 0
5:35 pm 17:35 Sunny 78 25.3 70 21.1 78 78 Calm 30 1016 10 16.0934 0 0
5:55 pm 17:55 Sunny with Nearby Thunderstorms 78 25.7 70 21.3 77 77 Calm 30 1016 10 16.0934 0 0
6:15 pm 18:15 Sunny 78 25.7 70 20.9 75 75 SW 5 7 30.01 1016 10 16.0934 0 0
6:35 pm 18:35 Sunny 78 25.4 71 21.6 80 80 SW 8 13 30 1016 10 16.0934 0 0
6:55 pm 18:55 Sunny 78 25.4 71 21.7 80 80 WSW 3 6 30 1016 10 16.0934 0 0
7:15 pm 19:15 Sunny 77 25.2 72 22 82 82 Calm 30 1016 10 16.0934 0 0
7:35 pm 19:35 Sunny 79 25.9 71 21.7 78 78 Calm 30 1016 10 16.0934 0 0
7:55 pm 19:55 Sunny 78 25.8 71 21.8 79 79 Calm 30.01 1016 10 16.0934 0 0
8:15 pm 20:15 Mostly Cloudy 78 25.4 71 21.6 80 80 SSW 3 6 30.02 1017 10 16.0934 0 0
8:35 pm 20:35 Partly Cloudy 77 24.8 71 21.7 83 83 SSW 5 7 30.02 1017 10 16.0934 0 0
8:55 pm 20:55 Clear 75 23.9 71 21.9 89 89 SSW 5 7 30.04 1017 10 16.0934 0 0
9:15 pm 21:15 Clear 74 23.4 72 22.2 93 93 Calm 30.05 1017 10 16.0934 0 0
9:35 pm 21:35 Clear 73 22.8 72 22.4 98 98 Calm 30.06 1018 10 16.0934 0 0
9:55 pm 21:55 Mostly Cloudy 73 22.7 72 22.4 98 98 Calm 30.06 1018 10 16.0934 0 0
10:15 pm 22:15 Partly Cloudy 72 22 72 22 100 100 Calm 30.07 1018 7 11.26538 0 0
10:35 pm 22:35 Mostly Cloudy 72 22 72 22 100 100 Calm 30.07 1018 7 11.26538 0.01 0.254
10:55 pm 22:55 Partly Cloudy 71 21.7 71 21.7 100 100 Calm 30.07 1018 7 11.26538 0.01 0.254
11:15 pm 23:15 Clear 72 22 N/A N/A Calm 30.07 1018 7 11.26538 0 0
11:35 pm 23:35 Clear 70 21 N/A N/A Calm 30.07 1018 7 11.26538 0 0
11:55 pm 23:55 Clear 70 21 N/A N/A Calm 30.08 1019 7 11.26538 0 0

Powered by AerisWeather